World > North America > United States > New York

Northbush, New York Regional Weather

Lat: 43.00N, Lon: 74.37W
Wx Zone: NYZ039Web Search

Helpful Tip: Abbreviated, 7 Day, 14 Day Forecasts. There is a weather forecast for every taste.

Feedback


°F Click to change Northbush hourly weather to Imperial units.Click to change Northbush hourly weather to Metric units. °C
Northbush Weather Map
UTC Time: 5/9/2021, 22:39
Your Time:

Northbush, NY Regional Weather

Expires:202105092300;;860846
ASUS41 KALY 092210
RWRALY

NEW YORK STATE HOURLY WEATHER ROUNDUP
NATIONAL WEATHER SERVICE ALBANY NY
600 PM EDT SUN MAY 09 2021

NOTE: "FAIR" INDICATES FEW OR NO CLOUDS BELOW 12,000 FEET WITH NO
SIGNIFICANT WEATHER AND/OR NO OBSTRUCTIONS TO VISIBILITY.


NYZ032-033-038>043-046>054-057>066-NYZ062>081-082-084-092300-
EAST

  
CITY           SKY/WX    TMP DP  RH WIND       PRES   REMARKS
ALBANY         LGT RAIN  54  37  52 S9        29.90R                  
GLENS FALLS    CLOUDY    59  31  34 SW8       29.86R                  
POUGHKEEPSIE   LGT RAIN  52  42  69 SW12G17   29.94R                  
NEWBURGH       LGT RAIN  48  45  87 W12G17    29.96R FOG              
MONTGOMERY     LGT RAIN  46  42  86 SW12      29.95R                  
WHITE PLAINS   LGT RAIN  49  41  74 W3        29.95F                  
ISLIP          LGT RAIN  52  47  83 SW9       29.96F                  
NEW YORK CITY  LGT RAIN  52  43  71 SW5       29.96F                  
CENTRAL PARK   LGT RAIN  50  46  86 CALM      29.98F                  
$$


SKY/WX - Weather  TMP - Temperature  DP - Dew Point  RH - Relative Humidity
WIND - Wind Direction/Speed PRES - Barometric Pressure VSB - Visibility
WCI - Wind Chill Index E13G22 Wind - East Wind 13 mph/Gusts of 22 mph